This site uses a module created by best online poker sites.

BSB police report for January 8, 2019

"01/07/2019","00:18","219CR0000451","SUSPICIOUS ACTIVITY","SUSPICIOUS ACTIVITY","AMHERST AND CONTINENTAL","",""
"01/07/2019","00:25","219CR0000452","BUSINESS CHECK","BUSINESS CHECK","1370 HARRISON","",""
"01/07/2019","00:28","219CR0000453","VANDALISM/CRIMINAL MISCHIEF","VANDALISM/CRIMINAL MISCHIEF","2009 HARRISON","",""
"01/07/2019","00:49","219CR0000454","DISTURBANCE","DISTURBANCE","1205 S MONTANA ROOM #2","",""
"01/07/2019","01:00","219CR0000455","MEDICAL - EMERGENCY","MEDICAL - EMERGENCY","25 E GRANITE #310","",""
"01/07/2019","02:37","219CR0000456","BUSINESS CHECK","BUSINESS CHECK","58 W PARK","",""
"01/07/2019","04:31","219CR0000457","UNWANTED PERSON","UNWANTED PERSON","************","",""
"01/07/2019","06:39","219CR0000458","ACCIDENT-MHP","ACCIDENT-MHP","I 15 MM 134 N BND","",""
"01/07/2019","07:26","219CR0000460","SUSPICIOUS ACTIVITY","SUSPICIOUS ACTIVITY","949 S MONTANA","",""
"01/07/2019","07:29","219CR0000459","MEDICAL - EMERGENCY","MEDICAL - EMERGENCY","3000 CONT DR/HILLCREST SCHOOL","",""
"01/07/2019","08:04","219CR0000461","CIVIL PAPER SERVICE","CIVIL PAPER SERVICE","3434 CARTER ST","",""
"01/07/2019","08:13","219CR0000462","CIVIL PAPER SERVICE","CIVIL PAPER SERVICE","2010 MONROE AVE","",""
"01/07/2019","08:14","219CR0000463","CIVIL PAPER SERVICE","CIVIL PAPER SERVICE","625 13TH ST","",""
"01/07/2019","08:22","219CR0000464","CIVIL PAPER SERVICE","CIVIL PAPER SERVICE","601 S IDAHO","",""
"01/07/2019","08:28","219CR0000465","T/S","T/S","FRONT AND ATLANTIC","",""
"01/07/2019","08:29","219CR0000466","CIVIL PAPER SERVICE","CIVIL PAPER SERVICE","1408 HOBSON","",""
"01/07/2019","08:32","219CR0000467","T/S","T/S","DEWEY AND HILL","",""
"01/07/2019","08:33","219CR0000468","CIVIL PAPER SERVICE","CIVIL PAPER SERVICE","934 HORNET","",""
"01/07/2019","08:37","219CR0000469","WELFARE CHECK","WELFARE CHECK","901 S WASHINGTON #14","",""
"01/07/2019","08:41","219CR0000470","CIVIL PAPER SERVICE","CIVIL PAPER SERVICE","1315 IOWA","",""
"01/07/2019","08:43","219CR0000471","CIVIL PAPER SERVICE","CIVIL PAPER SERVICE","1805 FLORIDA AVE","",""
"01/07/2019","08:44","219CR0000472","CIVIL PAPER SERVICE","CIVIL PAPER SERVICE","2215 S WARREN","",""
"01/07/2019","08:58","219CR0000473","CIVIL PAPER SERVICE","CIVIL PAPER SERVICE","600 S MAIN ST","",""
"01/07/2019","08:59","219CR0000474","T/S","T/S","PORPHYRY AND MONTANA ST","",""
"01/07/2019","09:08","219CR0000476","CIVIL PAPER SERVICE","CIVIL PAPER SERVICE","8 W FRONT ST","",""
"01/07/2019","09:08","219CR0000475","CIVIL PAPER SERVICE","CIVIL PAPER SERVICE","620 S DAKOTA","",""
"01/07/2019","09:14","219CR0000477","T/S","T/S","PARK AND WESTERN","",""
"01/07/2019","09:15","219CR0000478","CIVIL PAPER SERVICE","CIVIL PAPER SERVICE","600 S MAIN ST","",""
"01/07/2019","09:17","219CR0000479","HARASSMENT","HARASSMENT","1125 S MAIN APT 101","",""
"01/07/2019","09:18","219CR0000480","ALARM - BURGLARY","ALARM - BURGLARY","************","",""
"01/07/2019","09:25","219CR0000481","MEDICAL - EMERGENCY","MEDICAL - EMERGENCY","228 TRINITY LOOP","",""
"01/07/2019","09:26","219CR0000482","THEFT","THEFT OF VEHICLE PARTS/ACCESSO","508 SILVER BOW HOMES","",""
"01/07/2019","09:50","219CR0000483","T/S","T/S","WESTERN AND PARK","",""
"01/07/2019","09:53","219CR0000484","MEDICAL - EMERGENCY","MEDICAL - EMERGENCY","3033 BUSCH #27","",""
"01/07/2019","10:14","219CR0000485","THEFT","THEFT FROM MOTOR VEHICLE","1370 HARRISON","",""
"01/07/2019","10:15","219CR0000486","THEFT","THEFT, SHOPLIFT","3901 HARRISON AVE","",""
"01/07/2019","10:45","219CR0000487","T/S","T/S","WESTERN AND PARK","",""
"01/07/2019","10:52","219CR0000488","T/S","T/S","PARK AND EXCELSIOR","",""
"01/07/2019","10:58","219CR0000489","DETENTION BUSINESS","DETENTION BUSINESS","************","",""
"01/07/2019","11:14","219CR0000491","THEFT","THEFT","155 W QUARTZ","",""
"01/07/2019","11:17","219CR0000492","WELFARE CHECK","WELFARE CHECK","1806 GRAND AVE","",""
"01/07/2019","11:22","219CR0000493","THEFT","THEFT FROM MOTOR VEHICLE","225 ALASKA ST","",""
"01/07/2019","11:52","219CR0000494","MEDICAL - EMERGENCY","MEDICAL - EMERGENCY","322 N JACKSON #B","",""
"01/07/2019","11:54","219CR0000495","WELFARE CHECK","WELFARE CHECK","205 W GRANITE #204","",""
"01/07/2019","12:17","219CR0000497","T/S","T/S","PARK AND ARIZONA","",""
"01/07/2019","12:28","219CR0000498","THEFT","THEFT","502 1/2 S COLORADO","",""
"01/07/2019","12:32","219CR0000499","CIVIL PAPER SERVICE","CIVIL PAPER SERVICE","1315 IOWA","",""
"01/07/2019","12:34","219CR0000500","CIVIL PAPER SERVICE","CIVIL PAPER SERVICE","2719 GRAND AVE","",""
"01/07/2019","12:37","219CR0000501","JUVENILE MISC","JUVENILE MISC","************","",""
"01/07/2019","12:41","219CR0000502","CIVIL PAPER SERVICE","CIVIL PAPER SERVICE","2825 FARRAGUT E201","",""
"01/07/2019","12:44","219CR0000503","CITIZEN AID","CITIZEN AID","1812 A ST","",""
"01/07/2019","12:54","219CR0000504","CIVIL PAPER SERVICE","CIVIL PAPER SERVICE","4800 HARRISON # 12","",""
"01/07/2019","13:00","219CR0000505","THEFT","THEFT","2107 CORNELL DAYS INN","",""
"01/07/2019","13:02","219CR0000506","CIVIL PAPER SERVICE","CIVIL PAPER SERVICE","2302 PRINCETON","",""
"01/07/2019","13:10","219CR0000507","CIVIL PAPER SERVICE","CIVIL PAPER SERVICE","2302 PRINCETON","",""
"01/07/2019","13:16","219CR0000508","DETENTION BUSINESS","DETENTION BUSINESS","************","",""
"01/07/2019","13:17","219CR0000509","T/S","T/S","1301 HARRISON STOKES MARKET","",""
"01/07/2019","13:21","219CR0000510","T/S","CRIMINAL CONTEMPT","3200 DEXTER ST","ARREST(s) MADE",""
"01/07/2019","14:25","219CR0000512","ACCIDENT","ACCIDENT","MEADE ST AND HARVARD ST","",""
"01/07/2019","14:30","219CR0000513","CIVIL PAPER SERVICE","CIVIL PAPER SERVICE","3901 HARRISON AVE","",""
"01/07/2019","14:31","219CR0000514","DETENTION BUSINESS","DETENTION BUSINESS","************","",""
"01/07/2019","14:57","219CR0000515","WELFARE CHECK","OUT OF JURISDICTION HOLD","GRANITE AND IDAHO","ARREST(s) MADE",""
"01/07/2019","15:02","219CR0000516","SUSPICIOUS ACTIVITY","SUSPICIOUS ACTIVITY","CRYSTAL ST AND PARK ST","",""
"01/07/2019","15:13","219CR0000517","ATL","ATL","1005 WAUKESHA","",""
"01/07/2019","15:45","219CR0000518","T/S","T/S","HARRISON AND GRAND AVE","",""
"01/07/2019","15:48","219CR0000519","THEFT","THEFT, SHOPLIFT","3901 HARRISON AVE","",""
"01/07/2019","16:12","219CR0000520","THEFT","THEFT, SHOPLIFT","3901 HARRISON","",""
"01/07/2019","16:17","219CR0000521","SUSPICIOUS ACTIVITY","SUSPICIOUS ACTIVITY","1925 DEWEY BLVD","",""
"01/07/2019","16:54","219CR0000522","THEFT","THEFT, ALL OTHERS","1300 W PARK ST","",""
"01/07/2019","17:03","219CR0000523","LED BUSINESS","LED BUSINESS","400 S CLARK","",""
"01/07/2019","17:13","219CR0000524","THEFT","THEFT, ALL OTHERS","4655 HARRISON AVE","",""
"01/07/2019","17:23","219CR0000525","HIT AND RUN","HIT AND RUN","3031 BURLINGTON","",""
"01/07/2019","18:11","219CR0000526","CIVIL PAPER SERVICE","CIVIL PAPER SERVICE","3901 HARRISON","",""
"01/07/2019","18:50","219CR0000527","MEDICAL - EMERGENCY","MEDICAL - EMERGENCY","2106 ELM","",""
"01/07/2019","19:01","219CR0000528","ALARM-DURESS","ALARM-DURESS","************","",""
"01/07/2019","20:03","219CR0000529","THEFT","THEFT FROM MOTOR VEHICLE","4040 PAXSON","",""
"01/07/2019","20:14","219CR0000530","SUSPICIOUS ACTIVITY","SUSPICIOUS ACTIVITY","MONTANA AND WOOLMAN","",""
"01/07/2019","20:19","219CR0000531","JUVENILE MISC","JUVENILE MISC","************","",""
"01/07/2019","20:21","219CR0000532","SUICIDE ATTEMPT/THREAT","SUICIDE ATTEMPT/THREAT","************","",""
"01/07/2019","20:21","219CR0000533","MEDICAL - EMERGENCY","MEDICAL - EMERGENCY","50 W BROADWAY #401","",""
"01/07/2019","21:38","219CR0000534","WELFARE CHECK","WELFARE CHECK","2167 S WARREN AVE","",""
"01/07/2019","22:22","219CR0000535","CITIZEN AID","CITIZEN AID","400 S CLARK","",""
"01/07/2019","22:25","219CR0000536","SUSPICIOUS ACTIVITY","SUSPICIOUS ACTIVITY","2708 S MONTANA ST","",""
"01/07/2019","22:38","219CR0000537","VANDALISM/CRIMINAL MISCHIEF","VANDALISM/CRIMINAL MISCHIEF","1932 OREGON","",""
"01/07/2019","23:47","219CR0000538","MEDICAL - EMERGENCY","MEDICAL - EMERGENCY","1901 ROOSEVELT AVE","",""
"01/08/2019","00:18","219CR0000539","SUSPICIOUS ACTIVITY","SUSPICIOUS ACTIVITY","ALUMINUM AND DAKOTA","",""
"01/08/2019","01:43","219CR0000540","SUSPICIOUS ACTIVITY","SUSPICIOUS ACTIVITY","56 E BROADWAY","",""
"01/08/2019","02:09","219CR0000541","SUSPICIOUS ACTIVITY","POSSESSION OF DANGEROUS DRUGS","OREGON AND SCHLEY","ARREST(s) MADE",""
"01/08/2019","02:31","219CR0000542","MEDICAL - EMERGENCY","MEDICAL - EMERGENCY","2650 MEADOWBROOK","",""
"01/08/2019","02:41","219CR0000543","SUSPICIOUS ACTIVITY","SUSPICIOUS ACTIVITY","300 BLK S IDAHO","",""
"01/08/2019","03:34","219CR0000544","DISTURBANCE-NOISE","DISTURBANCE-NOISE","714 W PARK","",""
"01/08/2019","03:41","219CR0000545","ALARM - BURGLARY","ALARM - BURGLARY","************","",""
"01/08/2019","03:55","219CR0000546","ALARM - BURGLARY","ALARM - BURGLARY","************","",""
"01/08/2019","04:38","219CR0000547","ALARM - BURGLARY","ALARM - BURGLARY","************","",""
"01/08/2019","04:46","219CR0000548","MEDICAL - EMERGENCY","MEDICAL - EMERGENCY","201 HOBSON #16","",""
"01/08/2019","05:30","219CR0000549","CITIZEN AID","CITIZEN AID","1000 GRIZZLEY TRAIL","",""
"01/08/2019","06:06","219CR0000550","MEDICAL - EMERGENCY","MEDICAL - EMERGENCY","1951 GAYLORD ST","",""
"01/08/2019","06:47","219CR0000551","VANDALISM/CRIMINAL MISCHIEF","VANDALISM/CRIMINAL MISCHIEF","220 N WYOMING","",""
 

BSB police report for January 7, 2019

"01/04/2019","00:38","219CR0000246","MEDICAL - EMERGENCY","MEDICAL - EMERGENCY","3701 AUGUSTA","",""
"01/04/2019","01:10","219CR0000247","T/S","DRIVE WHILE SUSP. OR REVOKED","GAYLORD AND MAJORS","ARREST(s) MADE",""
"01/04/2019","01:25","219CR0000248","INTOXICATED PERSON","INTOXICATED PERSON","800 BLK S MONTANA","",""
"01/04/2019","02:00","219CR0000249","SUSPICIOUS ACTIVITY","SUSPICIOUS ACTIVITY","10 BLK N MAIN","",""
"01/04/2019","02:12","219CR0000250","THEFT","THEFT FROM MOTOR VEHICLE","531 S MONTANA","",""
"01/04/2019","02:48","219CR0000251","BUSINESS CHECK","BUSINESS CHECK","2544 HARRISON LISACS TRI STOP","",""
"01/04/2019","03:04","219CR0000252","SUSPICIOUS ACTIVITY","POSSESS DRUG PARAPHERNALIA","1131 MISSOURI #D","ARREST(s) MADE",""
"01/04/2019","03:13","219CR0000253","ASSIST OTHER AGENCY","ASSIST OTHER AGENCY","I15 MM 127 NB","",""
"01/04/2019","03:20","219CR0000254","TRAFFIC HAZARD","TRAFFIC HAZARD","1900 BLK WHITMAN","",""
"01/04/2019","03:38","219CR0000255","SUSPICIOUS ACTIVITY","SUSPICIOUS ACTIVITY","GEORGE AND LOWELL","",""
"01/04/2019","05:17","219CR0000256","FRAUD","POSSESSION OF DANGEROUS DRUGS","1915 DEWEY LUCKY LILS CASINO","ARREST(s) MADE",""
"01/04/2019","05:47","219CR0000257","MEDICAL - EMERGENCY","MEDICAL - EMERGENCY","4034 ELIZ WARREN #111","",""
"01/04/2019","05:52","219CR0000258","SUSPICIOUS ACTIVITY","SUSPICIOUS ACTIVITY","531 S MONTANA TOWN PUMP","",""
"01/04/2019","07:28","219CR0000259","BUSINESS CHECK","BUSINESS CHECK","58 W PARK ST","",""
"01/04/2019","08:15","219CR0000260","CIVIL PAPER SERVICE","CIVIL PAPER SERVICE","62 W BROADWAY","",""
"01/04/2019","08:23","219CR0000261","CIVIL PAPER SERVICE","CIVIL PAPER SERVICE","2726 SILVER BOW BLVD","",""
"01/04/2019","08:34","219CR0000262","CIVIL PAPER SERVICE","CIVIL PAPER SERVICE","1315 IOWA","",""
"01/04/2019","08:38","219CR0000263","ACCIDENT","ACCIDENT","1300 BLK HARRISON","",""
"01/04/2019","08:43","219CR0000264","CIVIL PAPER SERVICE","CIVIL PAPER SERVICE","1557 BROWNING ST","",""
"01/04/2019","08:47","219CR0000265","CIVIL PAPER SERVICE","CIVIL PAPER SERVICE","3901 HARRISON","",""
"01/04/2019","09:09","219CR0000266","FRAUD","FORGERY/COUNTERFEIT","1955 HARRISON","",""
"01/04/2019","09:20","219CR0000267","DETENTION BUSINESS","DETENTION BUSINESS","************","",""
"01/04/2019","09:25","219CR0000268","ALARM - MEDICAL","ALARM - MEDICAL","************","",""
"01/04/2019","09:44","219CR0000269","WANTED PERSON","WANTED PERSON","************","",""
"01/04/2019","10:04","219CR0000270","FIRE- GAS ODOR","FIRE- GAS ODOR","18 N EXCELSIOR","",""
"01/04/2019","10:10","219CR0000271","ASSAULT","ASSAULT","************","",""
"01/04/2019","10:23","219CR0000272","JUVENILE MISC","JUVENILE MISC","************","",""
"01/04/2019","10:23","219CR0000273","ALL OTHER","ALL OTHER","3021 EAGLE","",""
"01/04/2019","10:54","219CR0000275","SUSPICIOUS ACTIVITY","SUSPICIOUS ACTIVITY","MEADOW GULCH // BROWNS GULCH","",""
"01/04/2019","11:05","219CR0000276","HIT AND RUN","HIT AND RUN, UNATTENDED VEHICL","900 N EXCELSIOR","",""
"01/04/2019","11:23","219CR0000277","FIRE- GAS ODOR","FIRE- GAS ODOR","1527 WHITMAN AVE","",""
"01/04/2019","12:19","219CR0000278","CIVIL PAPER SERVICE","CIVIL PAPER SERVICE","60 E BROADWAY","",""
"01/04/2019","12:27","219CR0000279","DISTURBANCE","DISTURBANCE","51 W GRANITE","",""
"01/04/2019","12:36","219CR0000280","ALL OTHER","ALL OTHER","2620 ELM ST","",""
"01/04/2019","12:37","219CR0000281","TRAFFIC","TRAFFIC","1300 BLK HARRISON","",""
"01/04/2019","13:34","219CR0000282","WELFARE CHECK","WELFARE CHECK","430 MAHONEY","",""
"01/04/2019","13:39","219CR0000283","THEFT","CRIMINAL MISCHIEF","105 RAMPART DR #109","",""
"01/04/2019","13:42","219CR0000284","ACCIDENT-MHP","ACCIDENT-MHP","I15 EB HARRISON AVE","",""
"01/04/2019","14:18","219CR0000285","T/S","T/S","PARK AND MONTANA","",""
"01/04/2019","14:26","219CR0000286","SUSPICIOUS ACTIVITY","SUSPICIOUS ACTIVITY","709 PLACER ST","",""
"01/04/2019","14:29","219CR0000287","STOLEN VEHICLE","MOTOR VEHICLE THEFT","2009 LOCUST ST","",""
"01/04/2019","14:39","219CR0000288","THEFT","THEFT, SHOPLIFT","3901 HARRISON AVE","",""
"01/04/2019","14:41","219CR0000289","VANDALISM/CRIMINAL MISCHIEF","CRIMINAL MISCHIEF","2600 GRAND AVE","ARREST(s) MADE",""
"01/04/2019","15:01","219CR0000290","DETENTION BUSINESS","DETENTION BUSINESS","************","",""
"01/04/2019","15:47","219CR0000291","ALL OTHER","ALL OTHER","155 W GRANTE","",""
"01/04/2019","16:05","219CR0000292","THEFT","THEFT","4845 FOOTHILL DR","",""
"01/04/2019","16:11","219CR0000293","DISTURBANCE","DISTURBANCE","2825 FARRAGUT AVE #C203","",""
"01/04/2019","16:31","219CR0000294","SUSPICIOUS ACTIVITY","SUSPICIOUS ACTIVITY","2645 GOODWIN","",""
"01/04/2019","17:04","219CR0000295","ACCIDENT","ACCIDENT","FRONT AND MAIN","",""
"01/04/2019","17:14","219CR0000296","T/S","T/S","FRONT ST AND ARIZONA AVE","",""
"01/04/2019","17:19","219CR0000297","SUSPICIOUS ACTIVITY","SUSPICIOUS ACTIVITY","ROWE RD & LEXINGTON","",""
"01/04/2019","17:49","219CR0000298","CIVIL PAPER SERVICE","CIVIL PAPER SERVICE","1828 TEXAS","",""
"01/04/2019","18:10","219CR0000299","SUSPICIOUS ACTIVITY","CARELESS DRIVING","BROADWAY AND IDAHO","",""
"01/04/2019","18:44","219CR0000300","T/S","T/S","TEXS AND SILVER BOW","",""
"01/04/2019","18:55","219CR0000301","HARASSMENT","HARASSMENT","1131 MISSOURI AVE APT D","",""
"01/04/2019","19:06","219CR0000302","JUVENILE MISC","JUVENILE MISC","************","",""
"01/04/2019","19:14","219CR0000303","DISTURBANCE-NOISE","DISTURBANCE-NOISE","1125 S MAIN ST","",""
"01/04/2019","19:34","219CR0000304","ATL","ATL","2720 ELM ST","",""
"01/04/2019","19:43","219CR0000305","T/S","T/S @ SHIELDS AND MCGRUFF PARK","SHIELDS AND MCGRUFF PARK","",""
"01/04/2019","20:15","219CR0000306","SUSPICIOUS ACTIVITY","SUSPICIOUS ACTIVITY","PARK ST PARKING GARAGE","",""
"01/04/2019","21:24","219CR0000307","WELFARE CHECK","WELFARE CHECK","2700 HARVARD","",""
"01/04/2019","21:43","219CR0000308","DISTURBANCE","DISTURBANCE","1022 MARYLAND","",""
"01/04/2019","21:57","219CR0000309","MEDICAL - EMERGENCY","MEDICAL - EMERGENCY","329 S WASHINGTON","",""
"01/04/2019","22:29","219CR0000310","THEFT","THEFT, ALL OTHERS","643 S MAIN","",""
"01/04/2019","22:33","219CR0000311","FIRE - STRUCTURE","FIRE - STRUCTURE","1805 ADAMS","",""
"01/04/2019","23:01","219CR0000312","ASSAULT","ASSAULT WITH WEAPON","7000 PORTER DRIVE","",""
"01/04/2019","23:03","219CR0000313","DISTURBANCE-NOISE","DISTURBANCE-NOISE","50 W BROADWAY #302","",""
"01/04/2019","23:15","219CR0000314","SUSPICIOUS ACTIVITY","SUSPICIOUS ACTIVITY","3400 BLK MONROE","",""
"01/04/2019","23:21","219CR0000315","T/S","T/S","COBBAN ST AND FLORIDA ST","",""
"01/04/2019","23:25","219CR0000316","SUSPICIOUS ACTIVITY","SUSPICIOUS ACTIVITY","CAROLINA AND COBBAN","",""
"01/04/2019","23:42","219CR0000317","T/S","T/S","ROWE RD AND CLINTON","",""
"01/05/2019","00:20","219CR0000318","BURGLARY","BURGLARY","3260 SAINT ANN ST","",""
"01/05/2019","00:23","219CR0000319","SUSPICIOUS ACTIVITY","SUSPICIOUS ACTIVITY","800 BLK 8TH STREET","",""
"01/05/2019","01:06","219CR0000320","DISTURBANCE-NOISE","DISTURBANCE-NOISE","635 W GRANITE","",""
"01/05/2019","01:44","219CR0000321","ALL OTHER","ALL OTHER","1324 HARRISON AVE BUS DEPOT","",""
"01/05/2019","01:52","219CR0000322","ALARM - FIRE","FALSE ALARM TO SAFETY AGENCY","50 W BROADWAY/LEGGETT APT","",""
"01/05/2019","02:21","219CR0000323","DISTURBANCE-NOISE","DISTURBANCE-NOISE","50 W BROADWAY #302","",""
"01/05/2019","02:44","219CR0000324","SUSPICIOUS ACTIVITY","SUSPICIOUS ACTIVITY","2400 BLK LOCUST","",""
"01/05/2019","04:20","219CR0000325","DISTURBANCE","DISTURBANCE","817 E FIRST","",""
"01/05/2019","04:22","219CR0000326","CITIZEN AID","CITIZEN AID","25 E GRANITE #310","",""
"01/05/2019","04:36","219CR0000327","CITIZEN AID","CITIZEN AID","1951 GAYLORD ST","",""
"01/05/2019","05:08","219CR0000328","BUSINESS CHECK","BUSINESS CHECK","531 S MONTANA LUCKY LILS CASIN","",""
"01/05/2019","05:25","219CR0000329","INFORMATION ONLY","INFORMATION ONLY","MAIN // CLAY","",""
"01/05/2019","06:33","219CR0000330","T/S","T/S","MONTANA AND MERCURY","",""
"01/05/2019","07:03","219CR0000331","ACCIDENT","HIT AND RUN, HIGHWAY FIXTURES","2100 ELM","",""
"01/05/2019","07:45","219CR0000332","CIVIL PAPER SERVICE","CIVIL PAPER SERVICE","155 W QUARTZ","",""
"01/05/2019","08:00","219CR0000333","CIVIL PAPER SERVICE","CIVIL PAPER SERVICE","1315 IOWA","",""
"01/05/2019","08:08","219CR0000334","CIVIL PAPER SERVICE","CIVIL PAPER SERVICE","207 W PARK #7","",""
"01/05/2019","08:09","219CR0000335","CIVIL PAPER SERVICE","CIVIL PAPER SERVICE","400 S CLARK","",""
"01/05/2019","08:15","219CR0000336","CIVIL PAPER SERVICE","CIVIL PAPER SERVICE","414 S WASHINGTON","",""
"01/05/2019","08:27","219CR0000337","CIVIL PAPER SERVICE","CIVIL PAPER SERVICE","321 N JACKSON APT C","",""
"01/05/2019","08:30","219CR0000338","CIVIL PAPER SERVICE","CIVIL PAPER SERVICE","6 TULLAMORE","",""
"01/05/2019","08:37","219CR0000339","CIVIL PAPER SERVICE","CIVIL PAPER SERVICE","815 W PARK","",""
"01/05/2019","08:45","219CR0000340","CIVIL PAPER SERVICE","CIVIL PAPER SERVICE","1029 NEVADA","",""
"01/05/2019","08:51","219CR0000341","HIT AND RUN","HIT AND RUN, UNATTENDED VEHICL","2021 MASSACHUSETTS","",""
"01/05/2019","09:10","219CR0000342","CIVIL PAPER SERVICE","CIVIL PAPER SERVICE","1945 S UTAH","",""
"01/05/2019","09:36","219CR0000343","BUSINESS CHECK","BUSINESS CHECK","58 W PARK","",""
"01/05/2019","10:16","219CR0000344","CIVIL PAPER SERVICE","CIVIL PAPER SERVICE","301 HATTIE LOOP","",""
"01/05/2019","11:01","219CR0000345","CIVIL PAPER SERVICE","CIVIL PAPER SERVICE","2411 OTTAWA","",""
"01/05/2019","11:21","219CR0000346","CIVIL PAPER SERVICE","CIVIL PAPER SERVICE","2726 SILVER BOW BLVD","",""
"01/05/2019","11:25","219CR0000347","ALARM - FIRE","ALARM - FIRE","1 E BROADWAY","",""
"01/05/2019","12:35","219CR0000349","CIVIL PAPER SERVICE","CIVIL PAPER SERVICE","2719 GRAND AVE","",""
"01/05/2019","13:17","219CR0000350","ALARM - BURGLARY","ALARM - BURGLARY","************","",""
"01/05/2019","13:21","219CR0000351","FRAUD","FRAUD","1620 N MAIN","",""
"01/05/2019","13:25","219CR0000352","WELFARE CHECK","WELFARE CHECK","1825 CAROLINA AVE","",""
"01/05/2019","13:46","219CR0000353","VANDALISM/CRIMINAL MISCHIEF","VANDALISM/CRIMINAL MISCHIEF","1151 W WOOLMAN ST","",""
"01/05/2019","13:57","219CR0000354","MEDICAL - EMERGENCY","MEDICAL - EMERGENCY","1729 LOWELL","",""
"01/05/2019","14:39","219CR0000355","SUICIDE ATTEMPT/THREAT","SUICIDE ATTEMPT/THREAT","************","",""
"01/05/2019","15:38","219CR0000356","ALARM - FIRE","ALARM - FIRE","2616 LOCUST","",""
"01/05/2019","15:51","219CR0000357","WELFARE CHECK","WELFARE CHECK","323 S MONTANA #1","",""
"01/05/2019","16:29","219CR0000358","T/S","T/S","ZARELDA ST AND EXCELSIOR AVE","",""
"01/05/2019","17:00","219CR0000359","ALARM - BURGLARY","ALARM - BURGLARY","************","",""
"01/05/2019","17:05","219CR0000360","THEFT","THEFT, ALL OTHERS","2100 CORNELL","ARREST(s) MADE",""
"01/05/2019","17:15","219CR0000361","MEDICAL - EMERGENCY","MEDICAL - EMERGENCY","2602 S DAKOTA","",""
"01/05/2019","18:33","219CR0000362","T/S","T/S","MONTANA AND MERCURY","",""
"01/05/2019","18:40","219CR0000363","MEDICAL - EMERGENCY","MEDICAL - EMERGENCY","25 E GRANITE ST # 310","",""
"01/05/2019","18:44","219CR0000364","ASSIST OTHER AGENCY","ASSIST OTHER AGENCY","I15 MM 144 NB","",""
"01/05/2019","18:58","219CR0000365","ALL OTHER","ALL OTHER","225 N ALASKA","",""
"01/05/2019","19:42","219CR0000366","THEFT","THEFT, SHOPLIFT","1000 GRIZZLY TRAIL","",""
"01/05/2019","20:11","219CR0000367","SUSPICIOUS ACTIVITY","SUSPICIOUS ACTIVITY","3100 BLK S DAKOTA ST","",""
"01/05/2019","20:25","219CR0000368","T/S","T/S","MONTANA AND HOLLAND","",""
"01/05/2019","20:34","219CR0000369","UNKNOWN PROBLEM","UNKNOWN PROBLEM","10 BLK E BROADWAY","",""
"01/05/2019","21:11","219CR0000370","DISTURBANCE","DISTURBANCE","1000 BLK S EXCELSIOR AVE","",""
"01/05/2019","22:27","219CR0000371","JUVENILE RUNAWAY","JUVENILE RUNAWAY","************","",""
"01/05/2019","22:31","219CR0000372","ALL OTHER","BURGLARY, NON-RESIDENCE","222 E PARK","",""
"01/05/2019","22:46","219CR0000373","MEDICAL - EMERGENCY","MEDICAL - EMERGENCY","423 N WYOMING ST","",""
"01/05/2019","23:07","219CR0000374","ALARM - MEDICAL","ALARM - MEDICAL","************","",""
"01/05/2019","23:11","219CR0000375","SUSPICIOUS ACTIVITY","SUSPICIOUS ACTIVITY","PAXSON AVE AND SAMPSON ST","",""
"01/05/2019","23:22","219CR0000376","DISTURBANCE","DISTURBANCE","2590 MOULTON ST","",""
"01/05/2019","23:54","219CR0000377","DISTURBANCE-NOISE","DISTURBANCE-NOISE","1814 S ARIZONA","",""
"01/06/2019","00:06","219CR0000378","ALL OTHER","ALL OTHER","2205 FAIRWAY AVE","",""
"01/06/2019","00:25","219CR0000379","ILLEGAL SHOOTING","ILLEGAL SHOOTING","309 S IDAHO ST","",""
"01/06/2019","00:40","219CR0000380","BUSINESS CHECK","BUSINESS CHECK","1370 HARRISON","",""
"01/06/2019","00:43","219CR0000381","DISTURBANCE","DISTURBANCE","9 LAIRD ST","",""
"01/06/2019","00:55","219CR0000382","MEDICAL - EMERGENCY","MEDICAL - EMERGENCY","2240 SKYWAY AVE","",""
"01/06/2019","00:57","219CR0000383","MEDICAL - EMERGENCY","MEDICAL - EMERGENCY","823 S MONTANA ST","",""
"01/06/2019","01:02","219CR0000384","HIT AND RUN","HIT AND RUN, UNATTENDED VEHICL","1408 SCHLEY","",""
"01/06/2019","01:53","219CR0000385","INTOXICATED PERSON","INTOXICATED PERSON","2 E GALENA","",""
"01/06/2019","02:02","219CR0000386","UNKNOWN PROBLEM","UNKNOWN PROBLEM","400 S CLARK","",""
"01/06/2019","02:25","219CR0000387","ASSIST OTHER AGENCY","ASSIST OTHER AGENCY","900 BLK S MONTANA","",""
"01/06/2019","02:29","219CR0000388","SUSPICIOUS ACTIVITY","SUSPICIOUS ACTIVITY","2 E GALENA","",""
"01/06/2019","03:37","219CR0000389","BUSINESS CHECK","BUSINESS CHECK","531 S MONTANA","",""
"01/06/2019","05:15","219CR0000390","ALARM - MEDICAL","ALARM - MEDICAL","************","",""
"01/06/2019","06:38","219CR0000391","ALARM - FIRE","ALARM - FIRE","300 MOUNTHIGHLAND DR","",""
"01/06/2019","06:45","219CR0000392","ALARM - BURGLARY","ALARM - BURGLARY","************","",""
"01/06/2019","07:20","219CR0000393","SUSPICIOUS ACTIVITY","SUSPICIOUS ACTIVITY","735 W PARK","",""
"01/06/2019","08:01","219CR0000394","CIVIL PAPER SERVICE","CIVIL PAPER SERVICE","6 TULLAMORE","",""
"01/06/2019","08:25","219CR0000395","BUSINESS CHECK","BUSINESS CHECK","1370 HARRISON AVE","",""
"01/06/2019","08:27","219CR0000396","CIVIL PAPER SERVICE","CIVIL PAPER SERVICE","2825 FARRAGUT APT A 201","",""
"01/06/2019","08:38","219CR0000397","CIVIL PAPER SERVICE","CIVIL PAPER SERVICE","4800 HARRISON # 12","",""
"01/06/2019","08:41","219CR0000398","T/S","T/S","FRONT AND UTAH","",""
"01/06/2019","08:44","219CR0000399","BUSINESS CHECK","BUSINESS CHECK","TOWN PUMP DEWEY AND HARRISON","",""
"01/06/2019","08:53","219CR0000400","CIVIL PAPER SERVICE","CIVIL PAPER SERVICE","2215 S WARREN","",""
"01/06/2019","08:54","219CR0000401","T/S","T/S","HARRISON AND WATERLINE","",""
"01/06/2019","09:04","219CR0000402","STOLEN VEHICLE","STOLEN VEHICLE","301 W PARK #1","",""
"01/06/2019","09:26","219CR0000403","T/S","T/S","3001 HARRISON","",""
"01/06/2019","09:42","219CR0000404","CIVIL PAPER SERVICE","CIVIL PAPER SERVICE","1408 HOBSON","",""
"01/06/2019","09:46","219CR0000405","BUSINESS CHECK","BUSINESS CHECK","58 W PARK","",""
"01/06/2019","10:05","219CR0000406","CIVIL PAPER SERVICE","CIVIL PAPER SERVICE","815 W PARK","",""
"01/06/2019","10:23","219CR0000407","JUVENILE MISC","JUVENILE MISC","************","",""
"01/06/2019","10:50","219CR0000408","BUSINESS CHECK","BUSINESS CHECK","58 W PARK","",""
"01/06/2019","10:57","219CR0000409","ANIMAL COMPLAINT-BITE","ANIMAL COMPLAINT-BITE","49 E LAPLATTE","",""
"01/06/2019","11:04","219CR0000410","BURGLARY","BURGLARY, RESIDENCE","205 W GRANITE #208","",""
"01/06/2019","11:49","219CR0000411","DISTURBANCE","DISTURBANCE","910 EVANS #C6","",""
"01/06/2019","12:03","219CR0000412","T/S","T/S","HARRISON AND HARVARD","",""
"01/06/2019","12:15","219CR0000413","T/S","T/S","HARRISON AND ROOSEVELT","",""
"01/06/2019","12:26","219CR0000414","T/S","T/S","CIVIC CENTER RD","",""
"01/06/2019","12:30","219CR0000415","MEDICAL - EMERGENCY","MEDICAL - EMERGENCY","100 GARDENS WAY APT 152","",""
"01/06/2019","12:31","219CR0000416","INTIMIDATION","PRIVACY IN COMMUNICATION","901 S WASHINGTON #14","",""
"01/06/2019","12:48","219CR0000417","FOUND PROPERTY","FOUND PROPERTY","************","",""
"01/06/2019","12:53","219CR0000418","WANTED PERSON","WANTED PERSON","************","",""
"01/06/2019","13:05","219CR0000419","SUSPICIOUS ACTIVITY","SUSPICIOUS ACTIVITY","3901 HARRISON AVE","",""
"01/06/2019","13:08","219CR0000420","CIVIL STANDBY","CIVIL STANDBY","1839 HARRISON ACE HARDWARE","",""
"01/06/2019","13:20","219CR0000421","T/S","T/S","400 BLK CENTENNIAL AVE","",""
"01/06/2019","13:33","219CR0000422","T/S","T/S","PLATINUM AND NEVADA","",""
"01/06/2019","14:23","219CR0000423","BURGLARY","BURGLARY","405 W MERCURY","",""
"01/06/2019","14:57","219CR0000424","ASSAULT","PFMA - SERIOUS BODILY INJURY","5100 S WARREN #16","ARREST(s) MADE",""
"01/06/2019","15:03","219CR0000425","T/S","T/S","FARRELL AND HOWARD","",""
"01/06/2019","15:14","219CR0000426","T/S","NO LIABILITY INSURANCE IN EFF.","HARRISON AND MARCIA","",""
"01/06/2019","15:50","219CR0000427","SUSPICIOUS ACTIVITY","POSSESSION OF DANGEROUS DRUGS","11 N HENRY","ARREST(s) MADE",""
"01/06/2019","16:19","219CR0000428","DISTURBANCE","DISTURBANCE","1125 S MAIN ST #315","",""
"01/06/2019","16:25","219CR0000429","T/S","T/S","HARRISON AND ARGYLE","",""
"01/06/2019","16:36","219CR0000430","THEFT","THEFT, SHOPLIFT","1301 HARRISON STOKES MARKET","",""
"01/06/2019","17:14","219CR0000431","ASSAULT","ASSAULT, SIMPLE","714 1/2 W PARK ST","",""
"01/06/2019","17:17","219CR0000432","ATL","ATL","1601 KAW","",""
"01/06/2019","17:32","219CR0000433","SUSPICIOUS ACTIVITY","SUSPICIOUS ACTIVITY","2711 HARRISON AVE","",""
"01/06/2019","17:56","219CR0000434","UNWANTED PERSON","VIOLATION OF PROTECTION ORDER","911 WAUKESHA","",""
"01/06/2019","18:18","219CR0000435","DISTURBANCE","DISTURBANCE","1001 W BROADWAY","",""
"01/06/2019","18:21","219CR0000436","WELFARE CHECK","WELFARE CHECK","212 SILVERBOW HOMES","",""
"01/06/2019","18:24","219CR0000437","THEFT","THEFT FROM MOTOR VEHICLE","1300 W PARK","",""
"01/06/2019","18:29","219CR0000438","FIRE- GAS ODOR","FIRE- GAS ODOR","1000 S EXCELSIOR AVE","",""
"01/06/2019","18:50","219CR0000439","SUSPICIOUS ACTIVITY","SUSPICIOUS ACTIVITY","1300 BLOCK W PARK ST","",""
"01/06/2019","19:01","219CR0000440","FIRE- GAS ODOR","FIRE- GAS ODOR","1234 W DIAMOND","",""
"01/06/2019","19:09","219CR0000441","BUSINESS CHECK","BUSINESS CHECK","531 S MONTANA","",""
"01/06/2019","19:28","219CR0000442","THEFT","THEFT","222 E PARK","",""
"01/06/2019","19:29","219CR0000443","THEFT","THEFT, SHOPLIFT","3901 HARRISON AVE","",""
"01/06/2019","20:13","219CR0000444","UNWANTED PERSON","UNWANTED PERSON","************","",""
"01/06/2019","20:14","219CR0000445","DISTURBANCE","DISTURBANCE","1430 N MAIN ST","",""
"01/06/2019","21:04","219CR0000446","WELFARE CHECK","WELFARE CHECK","225 S ARIZONA","",""
"01/06/2019","21:07","219CR0000447","MEDICAL - EMERGENCY","MEDICAL - EMERGENCY","149 GARDENS WAY","",""
"01/06/2019","21:22","219CR0000448","MEDICAL - EMERGENCY","MEDICAL - EMERGENCY","100 GARDENS WAY #102","",""
"01/06/2019","22:23","219CR0000449","UNKNOWN PROBLEM","UNKNOWN PROBLEM","100 GARDENS WAY #151","",""
"01/06/2019","22:35","219CR0000450","JUVENILE MISC","JUVENILE MISC","************","",""
"01/07/2019","00:18","219CR0000451","SUSPICIOUS ACTIVITY","SUSPICIOUS ACTIVITY","AMHERST AND CONTINENTAL","",""
"01/07/2019","00:25","219CR0000452","BUSINESS CHECK","BUSINESS CHECK","1370 HARRISON","",""
"01/07/2019","00:28","219CR0000453","VANDALISM/CRIMINAL MISCHIEF","VANDALISM/CRIMINAL MISCHIEF","2009 HARRISON","",""
"01/07/2019","00:49","219CR0000454","DISTURBANCE","DISTURBANCE","1205 S MONTANA ROOM #2","",""
"01/07/2019","01:00","219CR0000455","MEDICAL - EMERGENCY","MEDICAL - EMERGENCY","25 E GRANITE #310","",""
"01/07/2019","02:37","219CR0000456","BUSINESS CHECK","BUSINESS CHECK","58 W PARK","",""
"01/07/2019","04:31","219CR0000457","UNWANTED PERSON","UNWANTED PERSON","************","",""
 

BSB police report ending January 4, 2019

"01/03/2019","00:03","219CR0000150","ASSIST OTHER AGENCY","ASSIST OTHER AGENCY","I90 MM 215 EB","",""
"01/03/2019","01:17","219CR0000151","ACCIDENT","ACCIDENT","CONTINENTAL DR // BLACKTAIL C","",""
"01/03/2019","01:19","219CR0000152","MEDICAL - EMERGENCY","MEDICAL - EMERGENCY","1749 GAYLORD","",""
"01/03/2019","01:49","219CR0000153","SUSPICIOUS ACTIVITY","SUSPICIOUS ACTIVITY","3636 HARRISON AVE/STAPLES","",""
"01/03/2019","03:17","219CR0000154","UNWANTED PERSON","UNWANTED PERSON","************","",""
"01/03/2019","03:20","219CR0000155","HARASSMENT","HARASSMENT","1370 HARRISON TOWN PUMP","",""
"01/03/2019","03:26","219CR0000156","SUSPICIOUS ACTIVITY","SUSPICIOUS ACTIVITY","300 BLK S DAKOTA","",""
"01/03/2019","03:39","219CR0000157","UNWANTED PERSON","UNWANTED PERSON","************","",""
"01/03/2019","05:23","219CR0000158","ALARM - BURGLARY","ALARM - BURGLARY","************","",""
"01/03/2019","07:03","219CR0000160","CIVIL PAPER SERVICE","CIVIL PAPER SERVICE","62 W BROADWAY","",""
"01/03/2019","07:09","219CR0000161","LED BUSINESS","LED BUSINESS","24 E COPPER","",""
"01/03/2019","07:33","219CR0000162","CIVIL PAPER SERVICE","CIVIL PAPER SERVICE","1007 W PARK ST","",""
"01/03/2019","07:39","219CR0000163","CIVIL PAPER SERVICE","CIVIL PAPER SERVICE","1557 BROWNING ST","",""
"01/03/2019","07:55","219CR0000164","CIVIL PAPER SERVICE","CIVIL PAPER SERVICE","45 W LAPLATTE ST","",""
"01/03/2019","08:14","219CR0000165","BUSINESS CHECK","BUSINESS CHECK","58 W PARK","",""
"01/03/2019","08:15","219CR0000166","SUSPICIOUS ACTIVITY","SUSPICIOUS ACTIVITY","300 BLK W QUARTZ ST","",""
"01/03/2019","08:25","219CR0000168","CIVIL PAPER SERVICE","CIVIL PAPER SERVICE","213 S WASHINGTON ST","",""
"01/03/2019","08:25","219CR0000167","T/S","T/S @ ","","",""
"01/03/2019","08:29","219CR0000169","CIVIL PAPER SERVICE","CIVIL PAPER SERVICE","1016 W GOLD ST","",""
"01/03/2019","08:41","219CR0000170","CIVIL PAPER SERVICE","CIVIL PAPER SERVICE","1557 BROWNING ST","",""
"01/03/2019","09:00","219CR0000171","DETENTION BUSINESS","DETENTION BUSINESS","************","",""
"01/03/2019","09:27","219CR0000172","LED BUSINESS","LED BUSINESS","155 W GRANITE ST","",""
"01/03/2019","09:40","219CR0000173","ALARM - FIRE","ALARM - FIRE","712 SAMPSON","",""
"01/03/2019","10:31","219CR0000174","ACCIDENT","ACCIDENT","LONGFELLOW AND PAXSON","",""
"01/03/2019","10:45","219CR0000175","THEFT","THEFT FROM MOTOR VEHICLE","1 HOLIDAY PARK DR","",""
"01/03/2019","11:08","219CR0000176","CIVIL STANDBY","CRIMINAL CONTEMPT","12 ONEILL","ARREST(s) MADE",""
"01/03/2019","11:18","219CR0000178","WELFARE CHECK","WELFARE CHECK","803 W GRANITE","",""
"01/03/2019","11:44","219CR0000180","UNWANTED PERSON","UNWANTED PERSON","************","",""
"01/03/2019","12:22","219CR0000182","ACCIDENT","ACCIDENT","201 E FRONT","",""
"01/03/2019","12:25","219CR0000183","WELFARE CHECK","WELFARE CHECK","2900 FLORAL BLVD","",""
"01/03/2019","12:34","219CR0000184","RESTRAINING ORDER VIOLATION","VIOLATION OF PROTECTION ORDER","225 N ALASKA","",""
"01/03/2019","12:35","219CR0000185","JUVENILE MISC","JUVENILE MISC","************","",""
"01/03/2019","12:49","219CR0000186","CIVIL PAPER SERVICE","CIVIL PAPER SERVICE","1812 A ST","",""
"01/03/2019","13:01","219CR0000187","DETENTION BUSINESS","DETENTION BUSINESS","************","",""
"01/03/2019","13:32","219CR0000189","T/S","T/S","MONTANA ST AND ALUMINUM ST","",""
"01/03/2019","13:36","219CR0000190","CIVIL PAPER SERVICE","CIVIL PAPER SERVICE","1315 IOWA ST","",""
"01/03/2019","13:40","219CR0000191","T/S","RED (STOP) LIGHT VIOLATION","FRONT ST AND NEVADA AVE","",""
"01/03/2019","13:53","219CR0000193","MEDICAL - EMERGENCY","MEDICAL - EMERGENCY","1921 DEWEY BLVD","",""
"01/03/2019","13:58","219CR0000194","JUVENILE MISC","JUVENILE MISC","************","",""
"01/03/2019","14:19","219CR0000195","SUSPICIOUS ACTIVITY","SUSPICIOUS ACTIVITY","1170 EVANS","",""
"01/03/2019","14:26","219CR0000196","THEFT","THEFT","712 E FRONT ST","",""
"01/03/2019","14:45","219CR0000197","HARASSMENT","HARASSMENT","207 W PARK ST #17","",""
"01/03/2019","14:47","219CR0000198","UNWANTED PERSON","UNWANTED PERSON","************","",""
"01/03/2019","14:54","219CR0000199","T/S","OPERATING WITHOUT CURRENT REGI","GOLD AND MAIN ST","",""
"01/03/2019","14:57","219CR0000200","SUSPICIOUS ACTIVITY","SUSPICIOUS ACTIVITY","225 N ALASKA","",""
"01/03/2019","15:04","219CR0000201","T/S","T/S","200 ROW SILVERBOW HOMES","",""
"01/03/2019","15:09","219CR0000202","ASSIST OTHER AGENCY","ASSIST OTHER AGENCY","KAW AVE BRIDGE","",""
"01/03/2019","15:18","219CR0000203","ASSIST OTHER AGENCY","ASSIST OTHER AGENCY","","",""
"01/03/2019","15:22","219CR0000204","THEFT","THEFT","2219 SILVER BOW BLVD","",""
"01/03/2019","15:26","219CR0000205","SUICIDE ATTEMPT/THREAT","SUICIDE ATTEMPT/THREAT","************","",""
"01/03/2019","15:33","219CR0000206","T/S","DRIVE WHILE SUSP. OR REVOKED","TEXAS AND GRAND","ARREST(s) MADE",""
"01/03/2019","15:36","219CR0000207","SUSPICIOUS ACTIVITY","SUSPICIOUS ACTIVITY","2305CONTINENTAL","",""
"01/03/2019","15:48","219CR0000208","ALL OTHER","ALL OTHER","LONGFELLOW // WYNN","",""
"01/03/2019","16:01","219CR0000209","T/S","T/S @ OHIO AND PARK","OHIO AND PARK","",""
"01/03/2019","16:07","219CR0000210","SUSPICIOUS ACTIVITY","SUSPICIOUS ACTIVITY","TRUE VALUE HARDWARE","",""
"01/03/2019","16:09","219CR0000211","ASSIST OTHER AGENCY","ASSIST OTHER AGENCY","I90 MM 223 WB","",""
"01/03/2019","16:15","219CR0000212","HARASSMENT","HARASSMENT","","",""
"01/03/2019","16:47","219CR0000213","T/S","USE OF ELECTR. DEVICE W/OP MV","PLATNIUM AND MONTANA","",""
"01/03/2019","16:58","219CR0000214","FIRE - OTHER","FIRE - OTHER","1477 LONGFELLOW","",""
"01/03/2019","17:13","219CR0000215","WANTED PERSON","CRIMINAL CONTEMPT","33 E IRON","ARREST(s) MADE",""
"01/03/2019","17:14","219CR0000216","T/S","T/S","MONTANA AND BRYANT","",""
"01/03/2019","17:44","219CR0000217","T/S","T/S","TEXAS AND ELM","",""
"01/03/2019","17:45","219CR0000218","T/S","T/S @ HARRISON","HARRISON","",""
"01/03/2019","18:04","219CR0000219","MEDICAL - EMERGENCY","MEDICAL - EMERGENCY","25 W FRONT","",""
"01/03/2019","18:06","219CR0000220","SUSPICIOUS ACTIVITY","SUSPICIOUS ACTIVITY","700 CASEY","",""
"01/03/2019","18:09","219CR0000221","HARASSMENT","HARASSMENT","1811 S ARIZONA","",""
"01/03/2019","18:18","219CR0000222","THEFT","BURGLARY, RESIDENCE","65 W GOLD","",""
"01/03/2019","18:56","219CR0000223","DISTURBANCE","DISTURBANCE","2777 HARRISON AVE","",""
"01/03/2019","19:19","219CR0000224","HIT AND RUN","HIT AND RUN, UNATTENDED VEHICL","1001 N EMMETT KENNEDY SCHOOL","",""
"01/03/2019","19:20","219CR0000225","HIT AND RUN","HIT AND RUN","3605 HARRISON AARONS","",""
"01/03/2019","19:33","219CR0000226","THEFT","THEFT","225 N ALASKA","",""
"01/03/2019","19:54","219CR0000227","THEFT","THEFT FROM BUILDINGS","2900 WALNUT","",""
"01/03/2019","21:00","219CR0000228","UNWANTED PERSON","FAILURE TO DISPERSE","2031 GAYLORD","ARREST(s) MADE",""
"01/03/2019","21:24","219CR0000229","SUSPICIOUS ACTIVITY","SUSPICIOUS ACTIVITY","2000 BLK CAROLINA","",""
"01/03/2019","21:26","219CR0000230","DISTURBANCE-NOISE","DISTURBANCE-NOISE","1125 S MAIN ST#304","",""
"01/03/2019","22:24","219CR0000231","BUSINESS CHECK","BUSINESS CHECK","2544 HARRISON LISACS TRI STOP","",""
"01/03/2019","22:32","219CR0000232","T/S","T/S","FARRAGUT AND COBBAN","",""
"01/03/2019","22:44","219CR0000233","BUSINESS CHECK","BUSINESS CHECK","2000 DEWEY BLVD DOTTYS CASINO","",""
"01/03/2019","22:47","219CR0000234","BUSINESS CHECK","BUSINESS CHECK","2711 HARRISON AVE TOWN PUMP","",""
"01/03/2019","22:52","219CR0000235","BUSINESS CHECK","BUSINESS CHECK","1000 S EXCELSIOR SWISS ALPS","",""
"01/03/2019","22:59","219CR0000236","BUSINESS CHECK","BUSINESS CHECK","531 S MONTANA TOWN PUMP","",""
"01/03/2019","23:08","219CR0000237","SUSPICIOUS ACTIVITY","SUSPICIOUS ACTIVITY","2020 FLORIDA","",""
"01/03/2019","23:19","219CR0000238","T/S","T/S","SILVERBOW AND TEXAS","",""
"01/03/2019","23:26","219CR0000239","BUSINESS CHECK","BUSINESS CHECK","FLYING J 122000 BROWNS GLCH RD","",""
"01/03/2019","23:27","219CR0000240","BUSINESS CHECK","BUSINESS CHECK","ROCKER TOWN PUMP 1000 GRIZZLEY","",""
"01/03/2019","23:31","219CR0000241","TRAFFIC HAZARD","TRAFFIC HAZARD","I90 EXIT 228 W BND","",""
"01/03/2019","23:33","219CR0000242","SUSPICIOUS ACTIVITY","SUSPICIOUS ACTIVITY","1000 GRIZZLY TR TOWN PUMP","",""
"01/03/2019","23:36","219CR0000243","SUSPICIOUS ACTIVITY","SUSPICIOUS ACTIVITY","FATHER SHEEHAN PARK","",""
"01/03/2019","23:54","219CR0000244","T/S","T/S @ WARREN AND JOY LN","WARREN AND JOY LN","",""
"01/03/2019","23:59","219CR0000245","SUSPICIOUS ACTIVITY","SUSPICIOUS ACTIVITY","1324 HARRISON AVE BUS DEPOT","",""
"01/04/2019","00:38","219CR0000246","MEDICAL - EMERGENCY","MEDICAL - EMERGENCY","3701 AUGUSTA","",""
"01/04/2019","01:10","219CR0000247","T/S","DRIVE WHILE SUSP. OR REVOKED","GAYLORD AND MAJORS","ARREST(s) MADE",""
"01/04/2019","01:25","219CR0000248","INTOXICATED PERSON","INTOXICATED PERSON","800 BLK S MONTANA","",""
"01/04/2019","02:00","219CR0000249","SUSPICIOUS ACTIVITY","SUSPICIOUS ACTIVITY","10 BLK N MAIN","",""
"01/04/2019","02:12","219CR0000250","THEFT","THEFT FROM MOTOR VEHICLE","531 S MONTANA","",""
"01/04/2019","02:48","219CR0000251","BUSINESS CHECK","BUSINESS CHECK","2544 HARRISON LISACS TRI STOP","",""
"01/04/2019","03:04","219CR0000252","SUSPICIOUS ACTIVITY","POSSESS DRUG PARAPHERNALIA","1131 MISSOURI #D","ARREST(s) MADE",""
"01/04/2019","03:13","219CR0000253","ASSIST OTHER AGENCY","ASSIST OTHER AGENCY","I15 MM 127 NB","",""
"01/04/2019","03:20","219CR0000254","TRAFFIC HAZARD","TRAFFIC HAZARD","1900 BLK WHITMAN","",""
"01/04/2019","03:38","219CR0000255","SUSPICIOUS ACTIVITY","SUSPICIOUS ACTIVITY","GEORGE AND LOWELL","",""
"01/04/2019","05:17","219CR0000256","FRAUD","POSSESSION OF DANGEROUS DRUGS","1915 DEWEY LUCKY LILS CASINO","ARREST(s) MADE",""
"01/04/2019","05:47","219CR0000257","MEDICAL - EMERGENCY","MEDICAL - EMERGENCY","4034 ELIZ WARREN #111","",""
"01/04/2019","05:52","219CR0000258","SUSPICIOUS ACTIVITY","SUSPICIOUS ACTIVITY","531 S MONTANA TOWN PUMP","",""
"01/04/2019","07:28","219CR0000259","BUSINESS CHECK","BUSINESS CHECK","58 W PARK ST","",""
 

BSB police report ending January 3, 2019

"01/02/2019","00:25","219CR0000080","MEDICAL - EMERGENCY","MEDICAL - EMERGENCY","1125 S MAIN ST #102","",""
"01/02/2019","00:46","219CR0000081","SUSPICIOUS ACTIVITY","SUSPICIOUS ACTIVITY","EMMETT AND CALEDONIA","",""
"01/02/2019","01:10","219CR0000082","SUSPICIOUS ACTIVITY","SUSPICIOUS ACTIVITY","3300 BLK KENNEDY E ALLEY","",""
"01/02/2019","01:21","219CR0000083","MEDICAL - EMERGENCY","MEDICAL - EMERGENCY","2400 CONTINENTAL","",""
"01/02/2019","01:33","219CR0000084","SUSPICIOUS ACTIVITY","SUSPICIOUS ACTIVITY","HILL AVE AND HOBSON ST","",""
"01/02/2019","01:36","219CR0000085","SUSPICIOUS ACTIVITY","SUSPICIOUS ACTIVITY","2636 YALE","",""
"01/02/2019","02:26","219CR0000086","T/S","NO LIABILITY INSURANCE IN EFF.","HARRISON AND AMHERST","",""
"01/02/2019","04:12","219CR0000087","T/S","T/S @ MONTANA ST AND IRON ST","MONTANA ST AND IRON ST","",""
"01/02/2019","04:52","219CR0000088","THEFT","BURGLARY, RESIDENCE","928 1/2 COLORADO","",""
"01/02/2019","06:57","219CR0000089","MEDICAL - EMERGENCY","MEDICAL - EMERGENCY","50 W BROADWAY","",""
"01/02/2019","07:44","219CR0000090","BUSINESS CHECK","BUSINESS CHECK","58 W PARK","",""
"01/02/2019","07:45","219CR0000091","ACCIDENT","CARELESS DRIVING","ADAMS AND WALNUT ST","",""
"01/02/2019","07:48","219CR0000092","CIVIL PAPER SERVICE","CIVIL PAPER SERVICE","2224 WALL","",""
"01/02/2019","08:27","219CR0000093","LED BUSINESS","LED BUSINESS","155 W GRANITE ST","",""
"01/02/2019","09:02","219CR0000094","LED BUSINESS","LED BUSINESS","155 W GRANITE","",""
"01/02/2019","09:07","219CR0000095","PARKING COMPLAINT","PARKING COMPLAINT","CONTINENTAL DR AND STATE ST","",""
"01/02/2019","09:13","219CR0000096","DETENTION BUSINESS","DETENTION BUSINESS","************","",""
"01/02/2019","09:37","219CR0000097","SUSPICIOUS ACTIVITY","SUSPICIOUS ACTIVITY","PARK AND MAIN","",""
"01/02/2019","10:02","219CR0000099","CIVIL PAPER SERVICE","CIVIL PAPER SERVICE","","",""
"01/02/2019","10:02","219CR0000098","CIVIL PAPER SERVICE","CIVIL PAPER SERVICE","805 17TH ST","",""
"01/02/2019","10:16","219CR0000100","WELFARE CHECK","WELFARE CHECK","10 BLK E FREMONT","",""
"01/02/2019","10:54","219CR0000101","ALARM - BURGLARY","ALARM - BURGLARY","************","",""
"01/02/2019","11:00","219CR0000102","DISTURBANCE","DISTURBANCE","106 PRONGHORN TRAIL","",""
"01/02/2019","11:03","219CR0000103","ALARM - MEDICAL","ALARM - MEDICAL","************","",""
"01/02/2019","11:06","219CR0000104","HIT AND RUN","RED (STOP) LIGHT VIOLATION","MAIN ST AND PLATINUM ST","",""
"01/02/2019","11:32","219CR0000107","ALARM - BURGLARY","ALARM - BURGLARY","************","",""
"01/02/2019","11:32","219CR0000106","MEDICAL - EMERGENCY","MEDICAL - EMERGENCY","1124 IOWA AVE","",""
"01/02/2019","11:40","219CR0000108","DRUGS","DRUGS","************","",""
"01/02/2019","11:57","219CR0000109","THEFT","THEFT, ALL OTHERS","1004 POWERS BLVD","",""
"01/02/2019","12:20","219CR0000110","SUSPICIOUS ACTIVITY","SUSPICIOUS ACTIVITY","122080 NISSLER RD","",""
"01/02/2019","12:38","219CR0000111","DISTURBANCE","DISTURBANCE","815 W PARK #2","",""
"01/02/2019","12:44","219CR0000112","ROBBERY","THEFT, ALL OTHERS","3541 HARRISON AVE","",""
"01/02/2019","12:58","219CR0000113","ACCIDENT","ACCIDENT","MONTANA AND ALUMINUM","",""
"01/02/2019","13:26","219CR0000114","ASSIST OTHER AGENCY","POSSESSION WITH INTENT TO SELL","405 W MERCURY APT A","ARREST(s) MADE",""
"01/02/2019","13:28","219CR0000115","ATL","ATL","1300 BLK HARRISON AVE","",""
"01/02/2019","13:42","219CR0000116","SUSPICIOUS ACTIVITY","SUSPICIOUS ACTIVITY","3901 HARRISON","",""
"01/02/2019","13:44","219CR0000117","FRAUD","FRAUD","916 E FRONT","",""
"01/02/2019","13:57","219CR0000118","CIVIL PAPER SERVICE","CIVIL PAPER SERVICE","1125 S MAIN #317","",""
"01/02/2019","14:06","219CR0000119","T/S","T/S","SANTA CLAUSE RD","",""
"01/02/2019","14:14","219CR0000120","MEDICAL - ASSIST","MEDICAL - ASSIST","************","",""
"01/02/2019","14:32","219CR0000121","SUSPICIOUS ACTIVITY","SUSPICIOUS ACTIVITY","BROADWAY","",""
"01/02/2019","14:39","219CR0000122","FIRE - VEHICLE","FIRE - VEHICLE","1600 BLK WHITMAN","",""
"01/02/2019","14:44","219CR0000123","ACCIDENT","ACCIDENT","310 W ALUMINUM ST","",""
"01/02/2019","15:06","219CR0000124","CIVIL PAPER SERVICE","CIVIL PAPER SERVICE","155 W QUARTZ","",""
"01/02/2019","15:11","219CR0000125","UNWANTED PERSON","CRIMINAL TRESPASS TO PROPERTY","916 E FRONT","ARREST(s) MADE",""
"01/02/2019","15:19","219CR0000126","ALL OTHER","ALL OTHER","225 N ALASKA","",""
"01/02/2019","15:43","219CR0000127","ASSIST OTHER AGENCY","ASSIST OTHER AGENCY","I15 MM108 SB","",""
"01/02/2019","15:49","219CR0000128","T/S","DRIVE WHILE SUSP. OR REVOKED","1370 HARRISON","",""
"01/02/2019","15:59","219CR0000129","T/S","OPERATING WITHOUT CURRENT REGI","MONTANA AND HOLLAND","",""
"01/02/2019","16:05","219CR0000130","FIRE - OTHER","FIRE - OTHER","226 W SILVER","",""
"01/02/2019","16:11","219CR0000131","T/S","T/S @ FRONT AND WYOMING","FRONT AND WYOMING","",""
"01/02/2019","16:25","219CR0000132","T/S","T/S @ CREDIT UNION GRAND","CREDIT UNION GRAND","",""
"01/02/2019","17:04","219CR0000133","T/S","T/S","2042 JOHNS AVE","",""
"01/02/2019","17:18","219CR0000134","T/S","T/S","2611 HARRISON AVE","",""
"01/02/2019","17:19","219CR0000135","T/S","T/S","EXCELSIOR AND GRANITE","",""
"01/02/2019","18:13","219CR0000136","BUSINESS CHECK","BUSINESS CHECK","2544 HARRISON","",""
"01/02/2019","18:16","219CR0000137","SUSPICIOUS ACTIVITY","SUSPICIOUS ACTIVITY","405 W MERCURY APT A","",""
"01/02/2019","19:50","219CR0000138","SUSPICIOUS ACTIVITY","SUSPICIOUS ACTIVITY","131 OROFINA WAY","",""
"01/02/2019","20:13","219CR0000139","DISTURBANCE","DISTURBANCE","910 EVANS APT D7","",""
"01/02/2019","20:44","219CR0000140","T/S","T/S","COBBAN AND HARRISON","",""
"01/02/2019","21:07","219CR0000141","ALARM - FIRE","ALARM - FIRE","3701 ELIZABETH WARREN","",""
"01/02/2019","22:37","219CR0000142","T/S","T/S @ CORNELL AND DAHLGREN","CORNELL AND DAHLGREN","",""
"01/02/2019","23:02","219CR0000143","SUSPICIOUS ACTIVITY","SUSPICIOUS ACTIVITY","405 W MERCURY #A","",""
"01/02/2019","23:04","219CR0000144","T/S","T/S","PLATINUM AND UTAH","",""
"01/02/2019","23:15","219CR0000145","T/S","T/S","PORPHYRY AND MONTANA","",""
"01/02/2019","23:20","219CR0000146","BUSINESS CHECK","BUSINESS CHECK","1915 DEWEY LUCKY LILS CASINO","",""
"01/02/2019","23:40","219CR0000147","THEFT","THEFT","3400 HILL APARTMENT 201","",""
"01/02/2019","23:51","219CR0000148","SUSPICIOUS ACTIVITY","SUSPICIOUS ACTIVITY","IOWA AND SECOND","",""
"01/02/2019","23:51","219CR0000149","MEDICAL - EMERGENCY","MEDICAL - EMERGENCY","2632 S MONTANA","",""
"01/03/2019","00:03","219CR0000150","ASSIST OTHER AGENCY","ASSIST OTHER AGENCY","I90 MM 215 EB","",""
"01/03/2019","01:17","219CR0000151","ACCIDENT","ACCIDENT","CONTINENTAL DR // BLACKTAIL C","",""
"01/03/2019","01:19","219CR0000152","MEDICAL - EMERGENCY","MEDICAL - EMERGENCY","1749 GAYLORD","",""
"01/03/2019","01:49","219CR0000153","SUSPICIOUS ACTIVITY","SUSPICIOUS ACTIVITY","3636 HARRISON AVE/STAPLES","",""
"01/03/2019","03:17","219CR0000154","UNWANTED PERSON","UNWANTED PERSON","************","",""
"01/03/2019","03:20","219CR0000155","HARASSMENT","HARASSMENT","1370 HARRISON TOWN PUMP","",""
"01/03/2019","03:26","219CR0000156","SUSPICIOUS ACTIVITY","SUSPICIOUS ACTIVITY","300 BLK S DAKOTA","",""
"01/03/2019","03:39","219CR0000157","UNWANTED PERSON","UNWANTED PERSON","************","",""
"01/03/2019","05:23","219CR0000158","ALARM - BURGLARY","ALARM - BURGLARY","************","",""
"01/03/2019","07:03","219CR0000160","CIVIL PAPER SERVICE","CIVIL PAPER SERVICE","62 W BROADWAY","",""
"01/03/2019","07:33","219CR0000162","CIVIL PAPER SERVICE","CIVIL PAPER SERVICE","1007 W PARK ST","",""
"01/03/2019","07:39","219CR0000163","CIVIL PAPER SERVICE","CIVIL PAPER SERVICE","1557 BROWNING ST","",""
 

BSB police report for January 2, 2019

"12/31/2018","01:40","218CR0033112","PARKING COMPLAINT","PARKING COMPLAINT","400 BLK N WYOMING","",""
"12/31/2018","01:44","218CR0033113","DISTURBANCE-NOISE","DISTURBANCE-NOISE","GRANITE AND MONTANA","",""
"12/31/2018","02:01","218CR0033114","ALARM - BURGLARY","ALARM - BURGLARY","************","",""
"12/31/2018","05:03","218CR0033115","CIVIL STANDBY","CIVIL STANDBY","612 1/2 W SILVER","",""
"12/31/2018","05:38","218CR0033116","MEDICAL - EMERGENCY","MEDICAL - EMERGENCY","1011 NEVADA AVE","",""
"12/31/2018","07:44","218CR0033117","MISSING PERSON","MISSING PERSON","************","",""
"12/31/2018","08:07","218CR0033118","BUSINESS CHECK","BUSINESS CHECK","58 W PARK","",""
"12/31/2018","08:39","218CR0033119","CIVIL PAPER SERVICE","CIVIL PAPER SERVICE","1614 N MAIN ST","",""
"12/31/2018","08:42","218CR0033120","CIVIL PAPER SERVICE","CIVIL PAPER SERVICE","301 W PARK APT #1","",""
"12/31/2018","08:47","218CR0033121","CIVIL PAPER SERVICE","CIVIL PAPER SERVICE","805 17TH ST","",""
"12/31/2018","08:48","218CR0033122","FIRE- GAS ODOR","FIRE- GAS ODOR","521 COBBAN BAKER AUTO","",""
"12/31/2018","08:54","218CR0033123","T/S","T/S","QUARTZ AND MAIN","",""
"12/31/2018","08:56","218CR0033124","BURGLARY","CRIMINAL MISCHIEF","840 W SILVER","",""
"12/31/2018","08:59","218CR0033125","CIVIL PAPER SERVICE","CIVIL PAPER SERVICE","600 S MAIN/TOWN PUMP CORP","",""
"12/31/2018","09:18","218CR0033126","CIVIL PAPER SERVICE","CIVIL PAPER SERVICE","1129 ATLANTIC","",""
"12/31/2018","09:24","218CR0033127","CIVIL PAPER SERVICE","CIVIL PAPER SERVICE","931 1/2 S UTAH","",""
"12/31/2018","09:30","218CR0033128","CIVIL PAPER SERVICE","CIVIL PAPER SERVICE","1029 NEVADA AVE","",""
"12/31/2018","09:39","218CR0033129","CIVIL PAPER SERVICE","CIVIL PAPER SERVICE","2224 WALL ST","",""
"12/31/2018","09:40","218CR0033130","CIVIL PAPER SERVICE","CIVIL PAPER SERVICE","601 S IDAHO","",""
"12/31/2018","09:45","218CR0033131","CIVIL PAPER SERVICE","CIVIL PAPER SERVICE","2400 LOCUST ST","",""
"12/31/2018","09:53","218CR0033132","CIVIL PAPER SERVICE","CIVIL PAPER SERVICE","500 S EMMETT AVE","",""
"12/31/2018","10:06","218CR0033133","CIVIL PAPER SERVICE","CIVIL PAPER SERVICE","213 S WASHINGTON","",""
"12/31/2018","10:15","218CR0033134","CIVIL PAPER SERVICE","CIVIL PAPER SERVICE","34 1/2 MISSOULA AVE","",""
"12/31/2018","10:27","218CR0033135","CIVIL PAPER SERVICE","CIVIL PAPER SERVICE","115 ONEIL","",""
"12/31/2018","10:45","218CR0033136","UNWANTED PERSON","UNWANTED PERSON","************","",""
"12/31/2018","11:46","218CR0033137","CITIZEN AID","CITIZEN AID","HOBSON AND ROWE","",""
"12/31/2018","13:36","218CR0033138","THEFT","THEFT, ALL OTHERS","62 W BROADWAY STREE","",""
"12/31/2018","13:38","218CR0033139","THEFT","THEFT","225 N ALASKA","",""
"12/31/2018","14:20","218CR0033140","MEDICAL - ASSIST","MEDICAL - ASSIST","************","",""
"12/31/2018","14:22","218CR0033141","ANIMAL COMPLAINT","ANIMAL COMPLAINT","ANIMAL SHELTER","",""
"12/31/2018","14:37","218CR0033142","ALL OTHER","ALL OTHER","1819 1/2 GARRISON AVE","",""
"12/31/2018","14:51","218CR0033143","SNOW REMOVAL COMPLAINT","SNOW REMOVAL COMPLAINT","423 N WYOMING ST","",""
"12/31/2018","15:26","218CR0033144","FIRE- GAS ODOR","FIRE- GAS ODOR","3035 NETTIE","",""
"12/31/2018","15:35","218CR0033145","HARASSMENT","STALKING","1905 HOLMES","",""
"12/31/2018","15:50","218CR0033146","THEFT","THEFT, SHOPLIFT","3901 HARRISON","",""
"12/31/2018","16:40","218CR0033147","UNWANTED PERSON","CRIMINAL MISCHIEF","1819 1/2 GARRISON AVE","ARREST(s) MADE",""
"12/31/2018","17:03","218CR0033148","MEDICAL - EMERGENCY","MEDICAL - EMERGENCY","517 EAST1ST STREET","",""
"12/31/2018","17:16","218CR0033149","THEFT","THEFT, ALL OTHERS","221 W DALY","",""
"12/31/2018","17:46","218CR0033151","THEFT","THEFT, ALL OTHERS","2119 AMHERST","",""
"12/31/2018","18:09","218CR0033152","T/S","DRIVING W/OUT VALID D/L","MONTANA ST AND SECOND ST","",""
"12/31/2018","18:11","218CR0033153","JUVENILE MISC","JUVENILE MISC","************","",""
"12/31/2018","18:15","218CR0033154","BURGLARY","BURGLARY, RESIDENCE","1367 SUNRISE","",""
"12/31/2018","18:23","218CR0033155","ACCIDENT","RIGHT-OF-WAY VIOLATION","COBBAN AND HARRISON","",""
"12/31/2018","18:32","218CR0033156","INTOXICATED PERSON","INTOXICATED PERSON","1741 HARRISON AVE","",""
"12/31/2018","18:44","218CR0033157","DISTURBANCE","DISTURBANCE","207 W PARK","",""
"12/31/2018","18:46","218CR0033158","THEFT","THEFT","916 W QUARTZ ST","",""
"12/31/2018","19:02","218CR0033159","ATL","ATL","SOUTH ON HARRISON","",""
"12/31/2018","19:07","218CR0033160","ASSIST OTHER AGENCY","ASSIST OTHER AGENCY","807 S MAIN","",""
"12/31/2018","19:11","218CR0033161","T/S","T/S","2119 AMHERST","",""
"12/31/2018","19:14","218CR0033162","HIT AND RUN","FAIL TO ID, SELF AND VEHICLE","433 W SILVER","",""
"12/31/2018","19:30","218CR0033163","THEFT","THEFT OF SERVICES","1285 HARRISON","",""
"12/31/2018","19:49","218CR0033164","ALARM - BURGLARY","ALARM - BURGLARY","************","",""
"12/31/2018","20:07","218CR0033165","MEDICAL - EMERGENCY","MEDICAL - EMERGENCY","1500 FAIRMONT RD","",""
"12/31/2018","21:34","218CR0033166","FIRE - STRUCTURE","FIRE - STRUCTURE","101 N STREET","",""
"12/31/2018","22:05","218CR0033167","ASSIST OTHER AGENCY","ASSIST OTHER AGENCY","2100 CORNELL QUALITY INN","",""
"12/31/2018","22:23","218CR0033168","ALL OTHER","ALL OTHER","CENTENNIAL AVE","",""
"12/31/2018","22:28","218CR0033169","SUSPICIOUS ACTIVITY","SUSPICIOUS ACTIVITY","1803 PHILLIPS","",""
"12/31/2018","22:36","218CR0033170","DISTURBANCE-NOISE","DISTURBANCE-NOISE","607 W GRANITE","",""
"12/31/2018","22:50","218CR0033171","SUSPICIOUS ACTIVITY","SUSPICIOUS ACTIVITY","GEORGE AND HARRISON","",""
"12/31/2018","22:54","218CR0033172","JUVENILE RUNAWAY","JUVENILE RUNAWAY","************","",""
"12/31/2018","23:14","218CR0033173","SUSPICIOUS ACTIVITY","SUSPICIOUS ACTIVITY","1515 OREGON AVE","",""
"12/31/2018","23:37","218CR0033174","DISTURBANCE","DISTURBANCE","1457 SUNRISE","",""
"12/31/2018","23:58","219CR0000001","SUSPICIOUS ACTIVITY","SUSPICIOUS ACTIVITY","906 HORNET","",""
"01/01/2019","00:08","219CR0000002","BUSINESS CHECK","BUSINESS CHECK","4600 HARRISON STAR LANES","",""
"01/01/2019","00:51","219CR0000003","DISTURBANCE","ASSAULT, SIMPLE","2 E GALENA THE TIMES","ARREST(s) MADE",""
"01/01/2019","01:05","219CR0000004","UNWANTED PERSON","UNWANTED PERSON","************","",""
"01/01/2019","01:30","219CR0000005","DISTURBANCE","DISTURBANCE","60 E BROADWAY ACOMA LOUNGE","",""
"01/01/2019","01:30","219CR0000006","SUSPICIOUS ACTIVITY","SUSPICIOUS ACTIVITY","ARIZONA AND MERCURY","",""
"01/01/2019","01:40","219CR0000007","DISTURBANCE","DISTURBANCE","224 W PARK KNIGHTS OF COLUMBUS","",""
"01/01/2019","01:56","219CR0000008","BUSINESS CHECK","ASSAULT, SIMPLE","2 E GALENA THE TIMES","",""
"01/01/2019","01:57","219CR0000009","ALARM - BURGLARY","ALARM - BURGLARY","************","",""
"01/01/2019","01:59","219CR0000010","HIT AND RUN","HIT AND RUN","700 BLK S WYOMING","",""
"01/01/2019","02:22","219CR0000011","T/S","T/S","PARK AND JACKSON","",""
"01/01/2019","02:44","219CR0000012","UNWANTED PERSON","UNWANTED PERSON","************","",""
"01/01/2019","02:50","219CR0000013","ALL OTHER","ALL OTHER","210 N WASHINGTON","",""
"01/01/2019","03:14","219CR0000014","ASSAULT","ASSAULT, SIMPLE","WYOMING AND BROADWAY","",""
"01/01/2019","03:31","219CR0000015","SUSPICIOUS ACTIVITY","POSSESS ALCOHOL OR INTOXICANT","300 BLK S ARIZONA","ARREST(s) MADE",""
"01/01/2019","03:39","219CR0000016","ACCIDENT","PFMA - SERIOUS BODILY INJURY","122 MINAH","ARREST(s) MADE",""
"01/01/2019","03:46","219CR0000017","ALARM - BURGLARY","ALARM - BURGLARY","************","",""
"01/01/2019","04:03","219CR0000018","SUSPICIOUS ACTIVITY","SUSPICIOUS ACTIVITY","3878 PAXSON AVE HAPPY ENDINGS","",""
"01/01/2019","04:19","219CR0000019","BURGLARY","BURGLARY","5101 S WARREN #10","",""
"01/01/2019","06:29","219CR0000020","JUVENILE MISC","UNGOVERNABLE JUVENILE","2801 LOCUST","",""
"01/01/2019","06:31","219CR0000021","DISTURBANCE-NOISE","DISTURBANCE-NOISE","1300 BLK W GOLD","",""
"01/01/2019","06:44","219CR0000022","MEDICAL - EMERGENCY","MEDICAL - EMERGENCY","2545 S MAIN","",""
"01/01/2019","07:22","219CR0000023","DISTURBANCE","DISTURBANCE","1201 W PLATINUM","",""
"01/01/2019","07:49","219CR0000024","FOUND PROPERTY","FOUND PROPERTY","************","",""
"01/01/2019","07:54","219CR0000025","VANDALISM/CRIMINAL MISCHIEF","CRIMINAL MISCHIEF","818 S ARIZONA","",""
"01/01/2019","08:46","219CR0000026","BUSINESS CHECK","BUSINESS CHECK","58 W PARK","",""
"01/01/2019","08:51","219CR0000027","MEDICAL - EMERGENCY","MEDICAL - EMERGENCY","2115 FARRAGUT","",""
"01/01/2019","09:03","219CR0000028","CIVIL PAPER SERVICE","CIVIL PAPER SERVICE","1945 S UTAH","",""
"01/01/2019","09:43","219CR0000029","ABANDONED VEHICLE- PRIVATE PRO","ABANDONED VEHICLE- PRIVATE PRO","3450 MONROE MACKENZIE RIVER","",""
"01/01/2019","09:51","219CR0000030","CIVIL PAPER SERVICE","CIVIL PAPER SERVICE","1016 W GOLD ST","",""
"01/01/2019","09:57","219CR0000031","ACCIDENT","ACCIDENT","1 HOLIDAY PARK","",""
"01/01/2019","10:24","219CR0000032","ABANDONED VEHICLE","ABANDONED VEHICLE","WARREN AVE AND B ST","",""
"01/01/2019","10:43","219CR0000033","T/S","T/S @ 3900 BLK HARRISON","3900 BLK HARRISON","",""
"01/01/2019","10:46","219CR0000034","DISTURBANCE-NOISE","DISTURBANCE-NOISE","1241 E FIRST ST","",""
"01/01/2019","10:47","219CR0000035","OPEN BUILDING","OPEN BUILDING","POST OFFICE 60 W GALENA","",""
"01/01/2019","10:52","219CR0000036","MISSING PERSON","MISSING PERSON","************","",""
"01/01/2019","10:57","219CR0000037","T/S","T/S @ HOLMES AND ARIZONA","HOLMES AND ARIZONA","",""
"01/01/2019","11:11","219CR0000038","ALARM - BURGLARY","ALARM - BURGLARY","************","",""
"01/01/2019","11:27","219CR0000039","MEDICAL - EMERGENCY","MEDICAL - EMERGENCY","1515 OREGON AVE APT 514","",""
"01/01/2019","11:28","219CR0000040","FIRE - OTHER","FIRE - OTHER","2700 FAIRMONT RD","",""
"01/01/2019","11:53","219CR0000041","ATL","ATL","FRONT AND UTAH","",""
"01/01/2019","12:02","219CR0000042","T/S","T/S @ ARIZONA ST AND GALENA ST","ARIZONA ST AND GALENA ST","",""
"01/01/2019","12:16","219CR0000043","T/S","T/S @ MAIN AND MERCURY","MAIN AND MERCURY","",""
"01/01/2019","12:29","219CR0000044","CIVIL PAPER SERVICE","CIVIL PAPER SERVICE","2400 LOCUST","",""
"01/01/2019","12:30","219CR0000045","ATL","ATL","","",""
"01/01/2019","12:54","219CR0000046","CIVIL STANDBY","CIVIL STANDBY","1016 W GOLD ST","",""
"01/01/2019","12:59","219CR0000047","FOUND PROPERTY","FOUND PROPERTY","************","",""
"01/01/2019","13:02","219CR0000048","T/S","T/S @ ROCKER","ROCKER","",""
"01/01/2019","13:14","219CR0000049","FRAUD","FRAUD","2111 ARGYLE","",""
"01/01/2019","14:23","219CR0000050","UNWANTED PERSON","UNWANTED PERSON","************","",""
"01/01/2019","16:00","219CR0000051","THEFT","THEFT","1125 S MAIN #317","",""
"01/01/2019","16:03","219CR0000052","ASSAULT","ASSAULT, SIMPLE","60 E BROADWAY ACOMA","",""
"01/01/2019","16:25","219CR0000053","CITIZEN AID","CITIZEN AID","1700 CIVIC CENTER RD","",""
"01/01/2019","16:38","219CR0000054","CITIZEN AID","CITIZEN AID","700 ROW SILVERBOW HOMES","",""
"01/01/2019","16:40","219CR0000055","BUSINESS CHECK","BUSINESS CHECK","58 W PARK","",""
"01/01/2019","16:43","219CR0000056","T/S","STOP SIGN VIOLATION","GEORGIA AND GRAND","",""
"01/01/2019","16:50","219CR0000057","T/S","T/S","1245 HARRISON/MONTANA BROOM","",""
"01/01/2019","17:04","219CR0000058","CIVIL STANDBY","CIVIL STANDBY","2124 OREGON","",""
"01/01/2019","17:23","219CR0000059","T/S","T/S @ 916 E FRONT GILLIGANS","916 E FRONT GILLIGANS","",""
"01/01/2019","18:02","219CR0000060","SUSPICIOUS ACTIVITY","SUSPICIOUS ACTIVITY","BANKS AVE AND AMHERST ST","",""
"01/01/2019","18:05","219CR0000061","STOLEN VEHICLE","MOTOR VEHICLE THEFT","3900 HARRISON BUTTE GM","",""
"01/01/2019","18:16","219CR0000062","SUSPICIOUS ACTIVITY","SUSPICIOUS ACTIVITY","925 W COPPER ST","",""
"01/01/2019","18:27","219CR0000063","CITIZEN AID","CITIZEN AID","1125 S MAIN","",""
"01/01/2019","18:54","219CR0000064","T/S","T/S @ HARRISON AND HOLMES","HARRISON AND HOLMES","",""
"01/01/2019","19:10","219CR0000065","TRAFFIC HAZARD","TRAFFIC HAZARD","2700 HARRISON/OUTDOORSMAN","",""
"01/01/2019","19:18","219CR0000066","SUSPICIOUS ACTIVITY","SUSPICIOUS ACTIVITY","2850 SILVERBOW BLVD","",""
"01/01/2019","19:37","219CR0000067","BUSINESS CHECK","BUSINESS CHECK","1370 HARRISON AVE","",""
"01/01/2019","19:49","219CR0000068","ASSIST OTHER AGENCY","ASSIST OTHER AGENCY","DELMOE LAKE RD","",""
"01/01/2019","19:52","219CR0000069","MEDICAL - EMERGENCY","MEDICAL - EMERGENCY","1132 1/2 FARRELL ST","",""
"01/01/2019","19:59","219CR0000070","T/S","T/S @ 301 W FRONT ST","301 W FRONT ST","",""
"01/01/2019","20:01","219CR0000071","CRIMINAL TRESPASS","CRIMINAL TRESPASS TO PROPERTY","1515 OREGON AVE APT 102","ARREST(s) MADE",""
"01/01/2019","20:16","219CR0000072","T/S","T/S @ HOLMES AVE AND GAYLORD ST","HOLMES AVE AND GAYLORD ST","",""
"01/01/2019","20:35","219CR0000073","T/S","T/S @ BROADWAY AND MONTANA ST","BROADWAY AND MONTANA ST","",""
"01/01/2019","21:37","219CR0000074","HIT AND RUN","HIT AND RUN","400 S CLARK","",""
"01/01/2019","21:43","219CR0000075","MEDICAL - EMERGENCY","MEDICAL - EMERGENCY","2 1/2 E COPPER","",""
"01/01/2019","23:13","219CR0000076","BUSINESS CHECK","BUSINESS CHECK","2711 HARRISON AVE TOWN PUMP","",""
"01/01/2019","23:26","219CR0000077","T/S","T/S","PARK ST AND MONTANA ST","",""
"01/01/2019","23:42","219CR0000078","BUSINESS CHECK","BUSINESS CHECK","1370 HARRISON","",""
"01/01/2019","23:50","219CR0000079","T/S","OPERATING WITHOUT CURRENT REGI","1800 HARRISON AVE","",""
"01/02/2019","00:25","219CR0000080","MEDICAL - EMERGENCY","MEDICAL - EMERGENCY","1125 S MAIN ST #102","",""
"01/02/2019","00:46","219CR0000081","SUSPICIOUS ACTIVITY","SUSPICIOUS ACTIVITY","EMMETT AND CALEDONIA","",""
"01/02/2019","01:10","219CR0000082","SUSPICIOUS ACTIVITY","SUSPICIOUS ACTIVITY","3300 BLK KENNEDY E ALLEY","",""
"01/02/2019","01:21","219CR0000083","MEDICAL - EMERGENCY","MEDICAL - EMERGENCY","2400 CONTINENTAL","",""
"01/02/2019","01:33","219CR0000084","SUSPICIOUS ACTIVITY","SUSPICIOUS ACTIVITY","HILL AVE AND HOBSON ST","",""
"01/02/2019","01:36","219CR0000085","SUSPICIOUS ACTIVITY","SUSPICIOUS ACTIVITY","2636 YALE","",""
"01/02/2019","02:26","219CR0000086","T/S","NO LIABILITY INSURANCE IN EFF.","HARRISON AND AMHERST","",""
"01/02/2019","04:12","219CR0000087","T/S","T/S @ MONTANA ST AND IRON ST","MONTANA ST AND IRON ST","",""
"01/02/2019","04:52","219CR0000088","THEFT","BURGLARY, RESIDENCE","928 1/2 COLORADO","",""
"01/02/2019","06:57","219CR0000089","MEDICAL - EMERGENCY","MEDICAL - EMERGENCY","50 W BROADWAY","",""
"01/02/2019","07:44","219CR0000090","BUSINESS CHECK","BUSINESS CHECK","58 W PARK","",""
 

Subcategories

Thursday the 17th. Affiliate Marketing.
Copyright 2012

©